Location: Unspecified
(37.3333°N, 0.0000°E)
Time: 12:13:03
(UTC+00:00)

Tiangong 2 - Pass Details

Date: 26 May 2019
Orbit: 376 x 388 km, 42.8° (Epoch: 25 June)

Event Time Altitude Azimuth Distance (km) Brightness Sun altitude
Rises 19:44:45 0° 283° (WNW) 2,237 6.5 -6.7°
Reaches altitude 10° 19:47:00 10° 296° (WNW) 1,384 5.6 -7.1°
Maximum altitude 19:49:45 28° 358° (N) 742 2.9 -7.5°
Drops below altitude 10° 19:52:30 10° 60° (ENE) 1,382 3.6 -8.0°
Enters shadow 19:54:29 - 72° (ENE) 2,131 4.5 -8.3°
